CZ-3C DEB

基本信息
目录编号:
42467
目录名称:
CZ-3C DEB
国际标识:
2010-057BG
轨道中心:
EARTH
物体状态:
在轨
发射日期:
2010-10-31 UTC
轨道信息
数据来源: 国际轨道数据
星历时间: 2026-07-13T02:13:44+0800
半长轴: 12269.939km
偏心率: 0.4473711
轨道倾角: 20.146°
近地点辐角: 121.372°
升交点赤经: 31.337°
平近点角: 290.081°
近地点: 402.585km
远地点: 11381.019km
周期: 225.436分钟
每日圈数: 6.387622
详细信息
发射场:
XSC
轨道高度:
LEO
数据来源:
AOE Integration Group
参考系:
TEME
时间系统:
UTC
历元类型:
SGP4
2D轨道图
3D轨道图
轨道高度分析图
轨道倾角分析图
轨道综合分析图
查看轨道综合分析图